Simultaneous Nadir Overpasses (SNOs) Predictions

Prediction of SNOs between LANDSAT-8 and METOP-A Satellite Orbit:

Table of predicted SNOs for the next 14.0 days since TLE Epoch: 8/1/2020
Index Date (LANDSAT-8) Time (LANDSAT-8) Lat,Lon (LANDSAT-8) SZA (LANDSAT-8 ) Date (METOP-A) Time (METOP-A) Lat,Lon (METOP-A) SZA (METOP-A ) Distance(km) Time Diff (sec)
1 08/03/2020 05:08:56 -81.46, -30.90 113.36 08/03/2020 05:08:53 -81.46, -30.87 113.36 0.60 3
2 08/03/2020 05:58:23 81.45, 136.49 66.62 08/03/2020 05:59:34 81.46, 136.45 66.66 1.11 71
3 08/05/2020 23:53:45 81.46,-132.08 67.40 08/05/2020 23:52:34 81.46,-131.98 67.38 1.65 71
4 08/06/2020 00:43:12 -81.46, 35.49 112.60 08/06/2020 00:43:14 -81.46, 35.62 112.59 2.16 2
5 08/08/2020 19:28:01 81.46, -65.76 68.19 08/08/2020 19:26:56 81.47, -65.95 68.14 3.35 65
6 08/08/2020 20:17:28 -81.46, 101.85 111.81 08/08/2020 20:17:36 -81.46, 101.69 111.82 2.70 8
7 08/11/2020 15:02:15 81.47, 0.94 69.06 08/11/2020 15:01:15 81.46, 0.87 69.02 1.68 60
8 08/11/2020 15:51:43 -81.45, 168.19 110.99 08/11/2020 15:51:56 -81.46, 168.14 110.98 1.14 13
9 08/14/2020 10:36:31 81.46, 67.23 69.91 08/14/2020 10:35:36 81.46, 67.28 69.88 0.91 55
